Find Starlink 30564

NORAD ID: 58043 Int'l Des: 2023-156 Owner: SPXS Country: US Constellation: starlink operational
LEOCIRCULAR

实时位置

正在加载3D地球...

关于 Starlink 30564

正在加载描述...

即将过境

Passes for default location (London). Set your location on the main map for personalized predictions.

高度历史

Loading altitude history...

两行轨道根数

1 58043U 23156R 26125.45938028 .00093028 00000-0 31147-2 0 9992
2 58043 53.1585 174.7955 0001119 81.3982 278.7146 15.30192210145009
Epoch: May 5, 2026 • Age: 12 hours

当前状态

高度 476.2 km
速度 7.63 km/s
星下点 -1.35°S, 147.89°E
发射日期 Oct 9, 2023
运行时间 2.5 years
类型 internet

技术详情

分类 Payload
质量 730.00 kg
干质量 700.00 kg
总质量 730.00 kg
长度 0.30 m
直径 4.10 m
跨度 29.00 m
形状 Box + pan
制造商 SPXS
平台类型 Starlink V2M
阶段状态 In Orbit
所有者/国家 SPXS/US

Most Searched